This is the latest recevied weather packets stored in our database for station/object KC4JIR. If no packets are shown the sender has not sent any weather packets the latest 10 day(s).
| Time | Temp. | Humidity | Pressure | Rain* | Wind** | Luminosity | Snow |
|---|---|---|---|---|---|---|---|
| 1778149902 | 19.44° C | 99% | 1009.4 hPa | 0 mm | - | 0 W/m² | - |
| 1778149598 | 19.44° C | 99% | 1009.6 hPa | 0 mm | - | 0 W/m² | - |
| 1778149295 | 19.44° C | 99% | 1009.3 hPa | 0 mm | - | 0 W/m² | - |
| 1778148991 | 19.44° C | 99% | 1008.9 hPa | 0 mm | - | 0 W/m² | - |
| 1778148687 | 19.44° C | 99% | 1008.2 hPa | 0 mm | - | 0 W/m² | - |
| 1778148384 | 19.44° C | 99% | 1008.3 hPa | 0 mm | - | 0 W/m² | - |
| 1778148082 | 19.44° C | 99% | 1008.8 hPa | 0 mm | - | 0 W/m² | - |
| 1778147780 | 19.44° C | 99% | 1009 hPa | 0 mm | - | 0 W/m² | - |
| 1778147476 | 19.44° C | 99% | 1009.3 hPa | 0 mm | - | 0 W/m² | - |
| 1778147172 | 19.44° C | 99% | 1009.7 hPa | 0 mm | - | 0 W/m² | - |
| 1778146870 | 19.44° C | 99% | 1009.6 hPa | 1.27 mm | - | 0 W/m² | - |
| 1778146567 | 19.44° C | 99% | 1009.3 hPa | 3.05 mm | - | 0 W/m² | - |
| 1778146266 | 19.44° C | 99% | 1009.5 hPa | 1.78 mm | - | 0 W/m² | - |
| 1778145962 | 19.44° C | 99% | 1010.4 hPa | 1.78 mm | - | 0 W/m² | - |
| 1778145658 | 19.44° C | 99% | 1010.7 hPa | 0 mm | - | 0 W/m² | - |
| 1778145355 | 19.44° C | 99% | 1010.2 hPa | 0 mm | - | 0 W/m² | - |
| 1778145051 | 19.44° C | 99% | 1010.3 hPa | 1.27 mm | - | 0 W/m² | - |
| 1778144747 | 19.44° C | 99% | 1010.3 hPa | 1.27 mm | - | 0 W/m² | - |
| 1778144444 | 19.44° C | 99% | 1010.5 hPa | 0 mm | - | 0 W/m² | - |
| 1778144141 | 19.44° C | 99% | 1010.3 hPa | 0 mm | - | 0 W/m² | - |
| 1778143838 | 19.44° C | 99% | 1010 hPa | 1.78 mm | - | 0 W/m² | - |
| 1778143534 | 19.44° C | 99% | 1010.6 hPa | 1.78 mm | - | 0 W/m² | - |
| 1778143232 | 19.44° C | 99% | 1010.3 hPa | 0 mm | - | 0 W/m² | - |
| 1778142928 | 19.44° C | 99% | 1009.6 hPa | 0 mm | - | 0 W/m² | - |
| 1778142625 | 19.44° C | 99% | 1009.1 hPa | 0 mm | - | 0 W/m² | - |
* Rain latest hour (hover to see other rain measurements)
** Current wind speed in m/s (hover to see current wind gust speed)